EW7336 Weather Reports


Display with metric or nautical units.
time (UTC)temp
F
wind
direction
speed
MPH
gust
MPH
rain 1hr
in
rain 24hr
in
rain mn
in
humidity
%
barometer
mb
20260505123004 56 226 0.0 2.0 0.01 0.46 0.44 96 1006.5
20260505121630 56 227 1.0 3.0 0.01 0.46 0.44 96 1006.6
20260505120100 56 252 0.0 3.0 0.02 0.46 0.44 95 1006.9
20260505114556 56 252 0.0 3.0 0.02 0.45 0.43 95 1006.9
20260505113054 56 254 1.0 3.0 0.02 0.45 0.43 95 1007.7
20260505111553 56 288 0.0 3.0 0.02 0.45 0.43 95 1007.4
20260505101555 55 340 0.0 3.0 0.12 0.43 0.41 94 1006.0
20260505100053 55 340 0.0 1.0 0.19 0.43 0.41 94 1007.0
20260505094548 56 340 0.0 1.0 0.25 0.42 0.40 93 1007.5
20260505093046 56 340 0.0 1.0 0.27 0.38 0.36 93 1007.8
20260505091545 56 340 0.0 8.0 0.21 0.30 0.28 92 1008.3
20260505090055 57 348 3.0 9.0 0.19 0.23 0.21 91 1008.4
20260505084547 58 302 2.0 9.0 0.13 0.17 0.15 91 1008.4
20260505083037 58 304 2.0 9.0 0.08 0.11 0.09 89 1007.9
20260505081535 59 306 1.0 4.0 0.07 0.09 0.07 86 1007.2
20260505080027 60 323 3.0 6.0 0.02 0.04 0.02 82 1006.8
20260505074522 62 228 0.0 3.0 0.02 0.04 0.02 76 1005.1
20260505073017 63 228 0.0 4.0 0.01 0.03 0.01 71 1005.4
20260505071514 64 238 1.0 4.0 0.00 0.02 0.00 66 1006.2
20260505070012 64 214 1.0 4.0 0.00 0.02 0.00 65 1005.8
20260505064510 64 214 1.0 3.0 0.00 0.02 0.00 64 1005.7
20260505063006 65 236 3.0 8.0 0.00 0.02 0.00 63 1005.5
20260505061503 65 201 4.0 7.0 0.00 0.02 0.00 62 1005.2
20260505054559 66 205 5.0 13.0 0.00 0.02 0.00 59 1005.0
20260505053106 66 210 5.0 11.0 0.00 0.02 0.00 59 1004.8
20260505051553 66 205 4.0 12.0 0.00 0.02 0.00 59 1004.5
20260505041544 67 213 4.0 10.0 0.00 0.02 0.00 59 1004.2
20260505040041 67 212 4.0 10.0 0.00 0.02 0.00 59 1004.5
20260505034541 68 226 4.0 10.0 0.00 0.02 0.02 59 1004.9
20260505033102 67 200 5.0 12.0 0.00 0.02 0.02 59 1005.1
20260505031540 68 205 5.0 10.0 0.00 0.02 0.02 58 1005.3
20260505030038 68 186 5.0 10.0 0.00 0.02 0.02 58 1005.2
20260505024537 68 213 3.0 9.0 0.00 0.02 0.02 59 1005.1
20260505023046 67 224 3.0 8.0 0.00 0.02 0.02 60 1004.9
20260505021536 67 200 4.0 7.0 0.00 0.02 0.02 62 1004.7
20260505020034 66 211 1.0 6.0 0.00 0.02 0.02 64 1004.5
20260505014534 66 205 1.0 5.0 0.00 0.02 0.02 64 1004.2
20260505013032 66 192 0.0 3.0 0.00 0.02 0.02 63 1003.8
20260505011532 67 203 1.0 4.0 0.00 0.02 0.02 60 1003.9
20260505010032 69 205 0.0 4.0 0.00 0.02 0.02 57 1003.7
20260505004540 70 200 3.0 8.0 0.00 0.02 0.02 55 1003.8
20260505003028 71 215 2.0 11.0 0.00 0.02 0.02 53 1003.8
20260505001527 71 218 4.0 14.0 0.00 0.02 0.02 52 1003.8
20260505000026 72 209 5.0 13.0 0.00 0.02 0.02 51 1003.9
20260504234529 72 210 3.0 12.0 0.00 0.02 0.02 54 1004.1
20260504233020 72 219 4.0 10.0 0.00 0.02 0.02 53 1004.4
20260504231532 73 196 4.0 12.0 0.00 0.02 0.02 53 1004.5
20260504230016 73 223 3.0 12.0 0.00 0.02 0.02 53 1004.8
20260504224513 74 213 6.0 13.0 0.00 0.02 0.02 51 1005.0
20260504223013 73 227 6.0 12.0 0.00 0.02 0.02 49 1005.1
20260504221511 74 196 7.0 16.0 0.00 0.02 0.02 48 1005.2
20260504220011 74 206 8.0 18.0 0.00 0.02 0.02 47 1005.4
20260504214515 75 196 9.0 19.0 0.00 0.02 0.02 46 1005.3
20260504213007 74 178 1.0 4.0 0.00 0.02 0.02 55 1005.2
20260504211504 73 169 1.0 4.0 0.00 0.02 0.02 55 1005.3
20260504210002 73 199 1.0 4.0 0.00 0.02 0.02 54 1005.7
20260504204637 73 202 3.0 6.0 0.00 0.02 0.02 53 1006.3
20260504203054 74 227 5.0 10.0 0.00 0.02 0.02 55 1006.6
20260504201551 73 254 5.0 14.0 0.00 0.02 0.02 55 1006.8
20260504200054 72 225 5.0 12.0 0.00 0.02 0.02 57 1006.8
20260504194550 70 214 4.0 8.0 0.01 0.02 0.02 66 1007.1
20260504193042 67 220 3.0 10.0 0.01 0.02 0.02 72 1007.2
20260504191543 66 216 2.0 6.0 0.02 0.02 0.02 76 1007.4
20260504190045 64 206 2.0 6.0 0.02 0.02 0.02 79 1007.6
20260504184541 63 217 2.0 5.0 0.01 0.01 0.01 78 1007.8
20260504183037 64 211 3.0 12.0 0.01 0.01 0.01 76 1007.1
20260504181538 64 204 3.0 10.0 0.00 0.00 0.00 73 1008.3
20260504180035 65 263 4.0 10.0 0.00 0.00 0.00 69 1008.2
20260504174538 66 183 5.0 19.0 0.00 0.00 0.00 66 1008.0
20260504173034 67 207 7.0 16.0 0.00 0.00 0.00 67 1007.8
20260504171541 67 227 8.0 14.0 0.00 0.00 0.00 65 1007.7